Вернуться в каталог

SL-16 DEB

АктивенLEO
NORAD 22415·DEBRIS·🇷🇺 Russia

Запущен Dec 25, 1992 с Baikonur Cosmodrome

Loading…

Ближайшие Пролёты (ближайшие 24 часа)

TLE

СвежийSource: Space-Track

Эпоха: Sep 14, 2026, 02:49 UTC

1 22415U 92093DG  26257.11795228  .00000154  00000-0  11386-3 0  9996
2 22415  71.1159 306.0609 0120555 177.8438 182.3228 14.06151333721519

Отслеживайте SL-16 DEB в реальном времени с AllMySat

Download on the App Store